Time,TemperatureF,DewpointF,PressureIn,WindDirection,WindDirectionDegrees,WindSpeedMPH,WindSpeedGustMPH,Humidity,HourlyPrecipIn,Conditions,Clouds,dailyrainin,SoftwareType,DateUTC
2013-05-08 00:04:00,57.6,49.0,29.94,North,0,0.0,0.0,73,0.00,,,0.00,WUHU216HW,2013-05-08 07:04:00,
2013-05-08 00:09:00,57.6,49.0,29.94,North,0,0.0,0.0,73,0.00,,,0.00,WUHU216HW,2013-05-08 07:09:00,
2013-05-08 00:14:00,57.4,48.8,29.94,North,0,0.0,0.0,73,0.00,,,0.00,WUHU216HW,2013-05-08 07:14:00,
2013-05-08 00:19:00,57.4,48.8,29.95,North,0,0.0,0.0,73,0.00,,,0.00,WUHU216HW,2013-05-08 07:19:00,
2013-05-08 00:24:00,57.2,49.0,29.94,North,0,0.0,0.0,74,0.00,,,0.00,WUHU216HW,2013-05-08 07:24:00,
2013-05-08 00:29:00,57.2,49.0,29.94,North,0,0.0,0.0,74,0.00,,,0.00,WUHU216HW,2013-05-08 07:29:00,
2013-05-08 00:34:00,57.1,49.1,29.94,North,0,0.0,0.0,75,0.00,,,0.00,WUHU216HW,2013-05-08 07:34:00,
2013-05-08 00:39:00,57.1,49.1,29.93,North,0,0.0,0.0,75,0.00,,,0.00,WUHU216HW,2013-05-08 07:39:00,
2013-05-08 00:44:00,56.9,49.0,29.93,North,0,0.0,0.0,75,0.00,,,0.00,WUHU216HW,2013-05-08 07:44:00,
2013-05-08 00:49:00,56.7,48.8,29.93,North,0,0.0,0.0,75,0.00,,,0.00,WUHU216HW,2013-05-08 07:49:00,
2013-05-08 00:54:00,56.5,49.0,29.93,North,0,0.0,0.0,76,0.00,,,0.00,WUHU216HW,2013-05-08 07:54:00,
2013-05-08 00:59:00,56.5,49.0,29.93,North,0,0.0,0.0,76,0.00,,,0.00,WUHU216HW,2013-05-08 07:59:00,
2013-05-08 01:04:00,56.3,48.8,29.93,North,0,0.0,0.0,76,0.00,,,0.00,WUHU216HW,2013-05-08 08:04:00,
2013-05-08 01:09:00,56.2,48.6,29.93,North,0,0.0,0.0,76,0.00,,,0.00,WUHU216HW,2013-05-08 08:09:00,
2013-05-08 01:15:00,56.0,48.5,29.93,North,0,0.0,0.0,76,0.00,,,0.00,WUHU216HW,2013-05-08 08:15:00,
2013-05-08 01:20:00,55.8,48.3,29.94,North,0,0.0,0.0,76,0.00,,,0.00,WUHU216HW,2013-05-08 08:20:00,
2013-05-08 01:25:00,55.8,48.3,29.94,North,0,0.0,0.0,76,0.00,,,0.00,WUHU216HW,2013-05-08 08:25:00,
2013-05-08 01:30:00,55.6,48.5,29.95,North,0,0.0,0.0,77,0.00,,,0.00,WUHU216HW,2013-05-08 08:30:00,
2013-05-08 01:35:00,55.6,48.5,29.94,North,0,0.0,0.0,77,0.00,,,0.00,WUHU216HW,2013-05-08 08:35:00,
2013-05-08 01:40:00,55.6,48.5,29.94,North,0,0.0,0.0,77,0.00,,,0.00,WUHU216HW,2013-05-08 08:40:00,
2013-05-08 01:45:00,55.4,48.6,29.94,North,0,0.0,0.0,78,0.00,,,0.00,WUHU216HW,2013-05-08 08:45:00,
2013-05-08 01:50:00,55.3,48.5,29.94,North,0,0.0,0.0,78,0.00,,,0.00,WUHU216HW,2013-05-08 08:50:00,
2013-05-08 01:55:00,55.3,48.5,29.94,North,0,0.0,0.0,78,0.00,,,0.00,WUHU216HW,2013-05-08 08:55:00,
2013-05-08 02:00:00,55.1,48.7,29.94,North,0,0.0,0.0,79,0.00,,,0.00,WUHU216HW,2013-05-08 09:00:00,
2013-05-08 02:05:00,55.1,48.3,29.94,North,0,0.0,0.0,78,0.00,,,0.00,WUHU216HW,2013-05-08 09:05:00,
2013-05-08 02:10:00,54.9,48.2,29.94,North,0,0.0,0.0,78,0.00,,,0.00,WUHU216HW,2013-05-08 09:10:00,
2013-05-08 02:15:00,54.9,48.2,29.94,North,0,0.0,0.0,78,0.00,,,0.00,WUHU216HW,2013-05-08 09:15:00,
2013-05-08 02:20:00,54.7,48.3,29.95,North,0,0.0,0.0,79,0.00,,,0.00,WUHU216HW,2013-05-08 09:20:00,
2013-05-08 02:25:00,54.5,48.2,29.94,North,0,0.0,0.0,79,0.00,,,0.00,WUHU216HW,2013-05-08 09:25:00,
2013-05-08 02:30:00,54.4,47.6,29.95,North,0,0.0,0.0,78,0.00,,,0.00,WUHU216HW,2013-05-08 09:30:00,
2013-05-08 02:36:00,54.4,47.6,29.94,North,0,0.0,0.0,78,0.00,,,0.00,WUHU216HW,2013-05-08 09:36:00,
2013-05-08 02:41:00,54.2,47.5,29.94,North,0,0.0,0.0,78,0.00,,,0.00,WUHU216HW,2013-05-08 09:41:00,
2013-05-08 02:46:00,54.0,47.4,29.94,North,0,0.0,0.0,78,0.00,,,0.00,WUHU216HW,2013-05-08 09:46:00,
2013-05-08 02:51:00,54.0,47.7,29.94,North,0,0.0,0.0,79,0.00,,,0.00,WUHU216HW,2013-05-08 09:51:00,
2013-05-08 02:56:00,54.0,47.7,29.94,North,0,0.0,0.0,79,0.00,,,0.00,WUHU216HW,2013-05-08 09:56:00,
2013-05-08 03:01:00,53.8,47.5,29.94,North,0,0.0,0.0,79,0.00,,,0.00,WUHU216HW,2013-05-08 10:01:00,
2013-05-08 03:06:00,53.8,47.5,29.94,North,0,0.0,0.0,79,0.00,,,0.00,WUHU216HW,2013-05-08 10:06:00,
2013-05-08 03:11:00,53.8,47.5,29.94,North,0,0.0,0.0,79,0.00,,,0.00,WUHU216HW,2013-05-08 10:11:00,
2013-05-08 03:16:00,53.6,47.7,29.94,North,0,0.0,0.0,80,0.00,,,0.00,WUHU216HW,2013-05-08 10:16:00,
2013-05-08 03:21:00,53.6,47.7,29.95,North,0,0.0,0.0,80,0.00,,,0.00,WUHU216HW,2013-05-08 10:21:00,
2013-05-08 03:26:00,53.6,47.7,29.95,North,0,0.0,0.0,80,0.00,,,0.00,WUHU216HW,2013-05-08 10:26:00,
2013-05-08 03:31:00,53.6,47.7,29.95,North,0,0.0,0.0,80,0.00,,,0.00,WUHU216HW,2013-05-08 10:31:00,
2013-05-08 03:36:00,53.6,47.7,29.95,North,0,0.0,0.0,80,0.00,,,0.00,WUHU216HW,2013-05-08 10:36:00,
2013-05-08 03:41:00,53.6,47.7,29.95,North,0,0.0,0.0,80,0.00,,,0.00,WUHU216HW,2013-05-08 10:41:00,
2013-05-08 03:46:00,53.6,47.7,29.95,North,0,0.0,0.0,80,0.00,,,0.00,WUHU216HW,2013-05-08 10:46:00,
2013-05-08 03:51:00,53.6,48.0,29.95,North,0,0.0,0.0,81,0.00,,,0.00,WUHU216HW,2013-05-08 10:51:00,
2013-05-08 03:56:00,53.6,48.0,29.95,North,0,0.0,0.0,81,0.00,,,0.00,WUHU216HW,2013-05-08 10:56:00,
2013-05-08 04:02:00,53.6,48.0,29.95,North,0,0.0,0.0,81,0.00,,,0.00,WUHU216HW,2013-05-08 11:02:00,
2013-05-08 04:07:00,53.6,48.0,29.95,North,0,0.0,0.0,81,0.00,,,0.00,WUHU216HW,2013-05-08 11:07:00,
2013-05-08 04:12:00,53.6,48.0,29.95,North,0,0.0,0.0,81,0.00,,,0.00,WUHU216HW,2013-05-08 11:12:00,
2013-05-08 04:17:00,53.5,47.8,29.95,North,0,0.0,0.0,81,0.00,,,0.00,WUHU216HW,2013-05-08 11:17:00,
2013-05-08 04:22:00,53.5,47.8,29.95,North,0,0.0,0.0,81,0.00,,,0.00,WUHU216HW,2013-05-08 11:22:00,
2013-05-08 04:27:00,53.3,47.6,29.95,North,0,0.0,0.0,81,0.00,,,0.00,WUHU216HW,2013-05-08 11:27:00,
2013-05-08 04:32:00,53.1,47.4,29.96,North,0,0.0,0.0,81,0.00,,,0.00,WUHU216HW,2013-05-08 11:32:00,
2013-05-08 04:37:00,53.1,47.4,29.95,North,0,0.0,0.0,81,0.00,,,0.00,WUHU216HW,2013-05-08 11:37:00,
2013-05-08 04:42:00,52.9,47.3,29.95,North,0,0.0,0.0,81,0.00,,,0.00,WUHU216HW,2013-05-08 11:42:00,
2013-05-08 04:47:00,52.9,47.6,29.96,North,0,0.0,0.0,82,0.00,,,0.00,WUHU216HW,2013-05-08 11:47:00,
2013-05-08 04:52:00,52.9,47.6,29.96,North,0,0.0,0.0,82,0.00,,,0.00,WUHU216HW,2013-05-08 11:52:00,
2013-05-08 04:57:00,52.9,47.6,29.96,North,0,0.0,0.0,82,0.00,,,0.00,WUHU216HW,2013-05-08 11:57:00,
2013-05-08 05:02:00,52.9,47.6,29.96,North,0,0.0,0.0,82,0.00,,,0.00,WUHU216HW,2013-05-08 12:02:00,
2013-05-08 05:07:00,52.9,47.6,29.96,North,0,0.0,0.0,82,0.00,,,0.00,WUHU216HW,2013-05-08 12:07:00,
2013-05-08 05:12:00,52.7,47.4,29.96,North,0,0.0,0.0,82,0.00,,,0.00,WUHU216HW,2013-05-08 12:12:00,
2013-05-08 05:18:00,52.7,47.4,29.95,North,0,0.0,0.0,82,0.00,,,0.00,WUHU216HW,2013-05-08 12:18:00,
2013-05-08 05:23:00,52.7,47.4,29.96,North,0,0.0,0.0,82,0.00,,,0.00,WUHU216HW,2013-05-08 12:23:00,
2013-05-08 05:28:00,52.7,47.4,29.96,North,0,0.0,0.0,82,0.00,,,0.00,WUHU216HW,2013-05-08 12:28:00,
2013-05-08 05:33:00,52.7,47.4,29.96,North,0,0.0,0.0,82,0.00,,,0.00,WUHU216HW,2013-05-08 12:33:00,
2013-05-08 05:38:00,52.6,47.3,29.95,North,0,0.0,0.0,82,0.00,,,0.00,WUHU216HW,2013-05-08 12:38:00,
2013-05-08 05:43:00,52.6,47.3,29.96,North,0,0.0,0.0,82,0.00,,,0.00,WUHU216HW,2013-05-08 12:43:00,
2013-05-08 05:48:00,52.6,47.3,29.96,North,0,0.0,0.0,82,0.00,,,0.00,WUHU216HW,2013-05-08 12:48:00,
2013-05-08 05:53:00,52.6,47.3,29.96,North,0,0.0,0.0,82,0.00,,,0.00,WUHU216HW,2013-05-08 12:53:00,
2013-05-08 05:58:00,52.6,47.5,29.96,North,0,0.0,0.0,83,0.00,,,0.00,WUHU216HW,2013-05-08 12:58:00,
2013-05-08 06:03:00,52.6,47.5,29.97,North,0,0.0,0.0,83,0.00,,,0.00,WUHU216HW,2013-05-08 13:03:00,
2013-05-08 06:08:00,52.6,47.5,29.97,North,0,0.0,0.0,83,0.00,,,0.00,WUHU216HW,2013-05-08 13:08:00,
2013-05-08 06:13:00,52.6,47.5,29.97,North,0,0.0,0.0,83,0.00,,,0.00,WUHU216HW,2013-05-08 13:13:00,
2013-05-08 06:18:00,52.6,47.5,29.97,North,0,0.0,0.0,83,0.00,,,0.00,WUHU216HW,2013-05-08 13:18:00,
2013-05-08 06:23:00,52.6,47.5,29.97,North,0,0.0,0.0,83,0.00,,,0.00,WUHU216HW,2013-05-08 13:23:00,
2013-05-08 06:28:00,52.6,47.5,29.97,North,0,0.0,0.0,83,0.00,,,0.00,WUHU216HW,2013-05-08 13:28:00,
2013-05-08 06:34:00,52.6,47.5,29.98,North,0,0.0,0.0,83,0.00,,,0.00,WUHU216HW,2013-05-08 13:34:00,
2013-05-08 06:39:00,52.6,47.5,29.98,North,0,0.0,0.0,83,0.00,,,0.00,WUHU216HW,2013-05-08 13:39:00,
2013-05-08 06:44:00,52.7,47.7,29.98,North,0,0.0,0.0,83,0.00,,,0.00,WUHU216HW,2013-05-08 13:44:00,
2013-05-08 06:49:00,52.7,47.7,29.99,North,0,0.0,0.0,83,0.00,,,0.00,WUHU216HW,2013-05-08 13:49:00,
2013-05-08 06:54:00,52.9,48.3,29.99,North,0,0.0,0.0,84,0.00,,,0.00,WUHU216HW,2013-05-08 13:54:00,
2013-05-08 06:59:00,53.1,48.4,29.98,North,0,0.0,0.0,84,0.00,,,0.00,WUHU216HW,2013-05-08 13:59:00,
2013-05-08 07:04:00,53.3,48.6,29.99,North,0,0.0,0.0,84,0.00,,,0.00,WUHU216HW,2013-05-08 14:04:00,
2013-05-08 07:09:00,53.6,49.0,29.98,North,0,0.0,0.0,84,0.00,,,0.00,WUHU216HW,2013-05-08 14:09:00,
2013-05-08 07:14:00,53.8,49.1,29.98,North,0,0.0,0.0,84,0.00,,,0.00,WUHU216HW,2013-05-08 14:14:00,
2013-05-08 07:19:00,54.0,49.2,29.99,North,0,0.0,0.0,84,0.00,,,0.00,WUHU216HW,2013-05-08 14:19:00,
2013-05-08 07:24:00,54.2,49.2,29.99,North,0,0.0,0.0,83,0.00,,,0.00,WUHU216HW,2013-05-08 14:24:00,
2013-05-08 07:29:00,54.4,49.3,29.99,North,0,0.0,0.0,83,0.00,,,0.00,WUHU216HW,2013-05-08 14:29:00,
2013-05-08 07:34:00,54.7,49.6,29.99,North,0,0.0,0.0,83,0.00,,,0.00,WUHU216HW,2013-05-08 14:34:00,
2013-05-08 07:39:00,54.9,49.8,29.99,North,0,0.0,0.0,83,0.00,,,0.00,WUHU216HW,2013-05-08 14:39:00,
2013-05-08 07:44:00,55.1,49.7,29.99,North,0,0.0,0.0,82,0.00,,,0.00,WUHU216HW,2013-05-08 14:44:00,
2013-05-08 07:49:00,55.4,50.0,29.99,North,0,0.0,0.0,82,0.00,,,0.00,WUHU216HW,2013-05-08 14:49:00,
2013-05-08 07:55:00,55.6,50.1,30.00,North,0,0.0,0.0,82,0.00,,,0.00,WUHU216HW,2013-05-08 14:55:00,
2013-05-08 08:00:00,55.8,50.3,30.00,North,0,0.0,0.0,82,0.00,,,0.00,WUHU216HW,2013-05-08 15:00:00,
2013-05-08 08:05:00,56.2,50.4,29.99,North,0,0.0,0.0,81,0.00,,,0.00,WUHU216HW,2013-05-08 15:05:00,
2013-05-08 08:10:00,56.5,50.8,30.00,North,0,0.0,0.0,81,0.00,,,0.00,WUHU216HW,2013-05-08 15:10:00,
2013-05-08 08:15:00,56.9,51.1,29.99,North,0,0.0,0.0,81,0.00,,,0.00,WUHU216HW,2013-05-08 15:15:00,
2013-05-08 08:20:00,57.1,51.3,29.99,North,0,0.0,0.0,81,0.00,,,0.00,WUHU216HW,2013-05-08 15:20:00,
2013-05-08 08:25:00,57.2,51.1,30.00,North,0,0.0,0.0,80,0.00,,,0.00,WUHU216HW,2013-05-08 15:25:00,
2013-05-08 08:30:00,57.6,51.5,30.00,North,0,0.0,0.0,80,0.00,,,0.00,WUHU216HW,2013-05-08 15:30:00,
2013-05-08 08:35:00,57.8,51.3,30.00,North,0,0.0,0.0,79,0.00,,,0.00,WUHU216HW,2013-05-08 15:35:00,
2013-05-08 08:40:00,58.0,51.5,30.00,North,0,0.0,0.0,79,0.00,,,0.00,WUHU216HW,2013-05-08 15:40:00,
2013-05-08 08:45:00,58.0,51.5,30.00,North,0,0.0,0.0,79,0.00,,,0.00,WUHU216HW,2013-05-08 15:45:00,
2013-05-08 08:50:00,58.3,51.1,30.00,North,0,0.0,0.0,77,0.00,,,0.00,WUHU216HW,2013-05-08 15:50:00,
2013-05-08 08:55:00,58.3,51.1,30.00,North,0,0.0,0.0,77,0.00,,,0.00,WUHU216HW,2013-05-08 15:55:00,
2013-05-08 09:00:00,58.7,51.5,30.00,North,0,0.0,0.0,77,0.00,,,0.00,WUHU216HW,2013-05-08 16:00:00,
2013-05-08 09:06:00,58.9,51.7,29.99,North,0,0.0,0.0,77,0.00,,,0.00,WUHU216HW,2013-05-08 16:06:00,
2013-05-08 09:11:00,59.2,51.7,29.99,North,0,0.0,0.0,76,0.00,,,0.00,WUHU216HW,2013-05-08 16:11:00,
2013-05-08 09:16:00,59.4,51.8,29.99,North,0,0.0,0.0,76,0.00,,,0.00,WUHU216HW,2013-05-08 16:16:00,
2013-05-08 09:21:00,59.6,52.0,30.00,North,0,0.0,0.0,76,0.00,,,0.00,WUHU216HW,2013-05-08 16:21:00,
2013-05-08 09:26:00,59.8,51.8,30.00,North,0,0.0,0.0,75,0.00,,,0.00,WUHU216HW,2013-05-08 16:26:00,
2013-05-08 09:31:00,60.1,52.2,30.00,North,0,0.0,0.0,75,0.00,,,0.00,WUHU216HW,2013-05-08 16:31:00,
2013-05-08 09:36:00,60.1,52.2,30.00,North,0,0.0,0.0,75,0.00,,,0.00,WUHU216HW,2013-05-08 16:36:00,
2013-05-08 09:41:00,60.1,52.2,30.00,North,0,0.0,0.0,75,0.00,,,0.00,WUHU216HW,2013-05-08 16:41:00,
2013-05-08 09:46:00,60.3,52.0,30.00,North,0,0.0,0.0,74,0.00,,,0.00,WUHU216HW,2013-05-08 16:46:00,
2013-05-08 09:51:00,60.5,52.2,30.00,North,0,0.0,0.0,74,0.00,,,0.00,WUHU216HW,2013-05-08 16:51:00,
2013-05-08 09:56:00,60.5,51.8,30.00,North,0,0.0,0.0,73,0.00,,,0.00,WUHU216HW,2013-05-08 16:56:00,
2013-05-08 10:01:00,60.7,52.0,30.00,North,0,0.0,0.0,73,0.00,,,0.00,WUHU216HW,2013-05-08 17:01:00,
2013-05-08 10:06:00,60.7,52.0,30.00,North,0,0.0,0.0,73,0.00,,,0.00,WUHU216HW,2013-05-08 17:06:00,
2013-05-08 10:11:00,60.8,52.2,30.00,North,0,0.0,0.0,73,0.00,,,0.00,WUHU216HW,2013-05-08 17:11:00,
2013-05-08 10:16:00,60.8,52.2,30.00,North,0,0.0,0.0,73,0.00,,,0.00,WUHU216HW,2013-05-08 17:16:00,
2013-05-08 10:22:00,61.0,52.4,30.00,North,0,0.0,0.0,73,0.00,,,0.00,WUHU216HW,2013-05-08 17:22:00,
2013-05-08 10:27:00,61.2,52.6,30.00,North,0,0.0,0.0,73,0.00,,,0.00,WUHU216HW,2013-05-08 17:27:00,
2013-05-08 10:32:00,61.4,52.3,30.00,North,0,0.0,0.0,72,0.00,,,0.00,WUHU216HW,2013-05-08 17:32:00,
2013-05-08 10:37:00,61.6,52.5,30.00,North,0,0.0,0.0,72,0.00,,,0.00,WUHU216HW,2013-05-08 17:37:00,
2013-05-08 10:42:00,62.1,53.0,30.01,North,0,0.0,0.0,72,0.00,,,0.00,WUHU216HW,2013-05-08 17:42:00,
2013-05-08 10:47:00,62.3,53.1,30.00,North,0,0.0,0.0,72,0.00,,,0.00,WUHU216HW,2013-05-08 17:47:00,
2013-05-08 10:52:00,62.5,52.9,30.00,North,0,0.0,0.0,71,0.00,,,0.00,WUHU216HW,2013-05-08 17:52:00,
2013-05-08 10:57:00,63.2,54.0,30.00,North,0,0.0,0.0,72,0.00,,,0.00,WUHU216HW,2013-05-08 17:57:00,
2013-05-08 11:02:00,63.9,54.0,30.00,North,0,0.0,0.0,70,0.00,,,0.00,WUHU216HW,2013-05-08 18:02:00,
2013-05-08 11:07:00,64.4,54.1,30.00,North,0,0.0,0.0,69,0.00,,,0.00,WUHU216HW,2013-05-08 18:07:00,
2013-05-08 11:12:00,65.0,53.7,30.01,North,0,0.0,0.0,67,0.00,,,0.00,WUHU216HW,2013-05-08 18:12:00,
2013-05-08 11:17:00,65.0,53.7,30.00,North,0,0.0,0.0,67,0.00,,,0.00,WUHU216HW,2013-05-08 18:17:00,
2013-05-08 11:22:00,65.2,53.9,30.00,North,0,0.0,0.0,67,0.00,,,0.00,WUHU216HW,2013-05-08 18:22:00,
2013-05-08 11:27:00,65.2,53.5,30.00,North,0,0.0,0.0,66,0.00,,,0.00,WUHU216HW,2013-05-08 18:27:00,
2013-05-08 11:32:00,64.8,53.2,30.01,North,0,0.0,0.0,66,0.00,,,0.00,WUHU216HW,2013-05-08 18:32:00,
2013-05-08 11:38:00,64.8,53.2,30.01,North,0,0.0,0.0,66,0.00,,,0.00,WUHU216HW,2013-05-08 18:38:00,
2013-05-08 11:43:00,64.8,53.2,30.01,North,0,0.0,0.0,66,0.00,,,0.00,WUHU216HW,2013-05-08 18:43:00,
2013-05-08 11:48:00,64.8,53.2,30.01,North,0,0.0,0.0,66,0.00,,,0.00,WUHU216HW,2013-05-08 18:48:00,
2013-05-08 11:53:00,64.6,52.6,30.01,North,0,0.0,0.0,65,0.00,,,0.00,WUHU216HW,2013-05-08 18:53:00,
2013-05-08 11:58:00,64.4,52.8,30.00,North,0,0.0,0.0,66,0.00,,,0.00,WUHU216HW,2013-05-08 18:58:00,
2013-05-08 12:03:00,64.8,53.2,30.00,North,0,0.0,0.0,66,0.00,,,0.00,WUHU216HW,2013-05-08 19:03:00,
2013-05-08 12:08:00,65.0,53.3,30.00,North,0,0.0,0.0,66,0.00,,,0.00,WUHU216HW,2013-05-08 19:08:00,
2013-05-08 12:13:00,65.3,53.3,30.00,North,0,0.0,0.0,65,0.00,,,0.00,WUHU216HW,2013-05-08 19:13:00,
2013-05-08 12:18:00,65.7,53.6,30.00,North,0,0.0,0.0,65,0.00,,,0.00,WUHU216HW,2013-05-08 19:18:00,
2013-05-08 12:23:00,66.2,53.3,30.00,North,0,0.0,0.0,63,0.00,,,0.00,WUHU216HW,2013-05-08 19:23:00,
2013-05-08 12:28:00,66.8,53.4,30.00,North,0,0.0,0.0,62,0.00,,,0.00,WUHU216HW,2013-05-08 19:28:00,
2013-05-08 12:33:00,67.0,53.6,29.99,North,0,0.0,0.0,62,0.00,,,0.00,WUHU216HW,2013-05-08 19:33:00,
2013-05-08 12:38:00,67.5,54.0,29.99,North,0,0.0,0.0,62,0.00,,,0.00,WUHU216HW,2013-05-08 19:38:00,
2013-05-08 12:44:00,68.2,54.3,29.99,North,0,0.0,0.0,61,0.00,,,0.00,WUHU216HW,2013-05-08 19:44:00,
2013-05-08 12:49:00,68.9,54.0,29.99,North,0,0.0,0.0,59,0.00,,,0.00,WUHU216HW,2013-05-08 19:49:00,
2013-05-08 12:54:00,69.3,54.4,29.99,North,0,0.0,0.0,59,0.00,,,0.00,WUHU216HW,2013-05-08 19:54:00,
2013-05-08 12:59:00,69.5,54.1,29.99,North,0,0.0,0.0,58,0.00,,,0.00,WUHU216HW,2013-05-08 19:59:00,
2013-05-08 13:04:00,69.8,54.5,29.99,North,0,0.0,0.0,58,0.00,,,0.00,WUHU216HW,2013-05-08 20:04:00,
2013-05-08 13:09:00,70.2,54.7,29.99,North,0,0.0,0.0,58,0.00,,,0.00,WUHU216HW,2013-05-08 20:09:00,
2013-05-08 13:14:00,70.4,54.5,29.99,North,0,0.0,0.0,57,0.00,,,0.00,WUHU216HW,2013-05-08 20:14:00,
2013-05-08 13:19:00,70.6,54.5,29.98,North,0,0.0,0.0,57,0.00,,,0.00,WUHU216HW,2013-05-08 20:19:00,
2013-05-08 13:24:00,70.4,53.4,29.99,North,0,0.0,0.0,55,0.00,,,0.00,WUHU216HW,2013-05-08 20:24:00,
2013-05-08 13:29:00,70.2,53.7,29.99,North,0,0.0,0.0,56,0.00,,,0.00,WUHU216HW,2013-05-08 20:29:00,
2013-05-08 13:34:00,70.6,55.1,29.98,North,0,0.0,0.0,58,0.00,,,0.00,WUHU216HW,2013-05-08 20:34:00,
2013-05-08 13:39:00,70.2,53.7,29.99,North,0,0.0,0.0,56,0.00,,,0.00,WUHU216HW,2013-05-08 20:39:00,
2013-05-08 13:44:00,69.5,53.1,29.98,North,0,0.0,0.0,56,0.00,,,0.00,WUHU216HW,2013-05-08 20:44:00,
2013-05-08 13:49:00,69.1,53.2,29.98,North,0,0.0,0.0,57,0.00,,,0.00,WUHU216HW,2013-05-08 20:49:00,
2013-05-08 13:55:00,68.8,53.4,29.99,North,0,0.0,0.0,58,0.00,,,0.00,WUHU216HW,2013-05-08 20:55:00,
2013-05-08 14:00:00,68.8,52.9,29.99,North,0,0.0,0.0,57,0.00,,,0.00,WUHU216HW,2013-05-08 21:00:00,
2013-05-08 14:05:00,68.6,52.8,29.99,North,0,0.0,0.0,57,0.00,,,0.00,WUHU216HW,2013-05-08 21:05:00,
2013-05-08 14:10:00,68.8,52.9,29.99,North,0,0.0,0.0,57,0.00,,,0.00,WUHU216HW,2013-05-08 21:10:00,
2013-05-08 14:15:00,69.1,52.8,29.99,North,0,0.0,0.0,56,0.00,,,0.00,WUHU216HW,2013-05-08 21:15:00,
2013-05-08 14:20:00,69.1,52.2,29.99,North,0,0.0,0.0,55,0.00,,,0.00,WUHU216HW,2013-05-08 21:20:00,
2013-05-08 14:25:00,69.1,52.8,29.98,North,0,0.0,0.0,56,0.00,,,0.00,WUHU216HW,2013-05-08 21:25:00,
2013-05-08 14:30:00,69.1,52.2,29.99,North,0,0.0,0.0,55,0.00,,,0.00,WUHU216HW,2013-05-08 21:30:00,
2013-05-08 14:35:00,69.1,51.2,29.98,North,0,0.0,0.0,53,0.00,,,0.00,WUHU216HW,2013-05-08 21:35:00,
2013-05-08 14:40:00,68.9,52.0,29.99,North,0,0.0,0.0,55,0.00,,,0.00,WUHU216HW,2013-05-08 21:40:00,
2013-05-08 14:45:00,69.1,52.8,29.99,North,0,0.0,0.0,56,0.00,,,0.00,WUHU216HW,2013-05-08 21:45:00,
2013-05-08 14:50:00,69.1,52.2,29.99,North,0,0.0,0.0,55,0.00,,,0.00,WUHU216HW,2013-05-08 21:50:00,
2013-05-08 14:55:00,69.1,52.2,29.98,North,0,0.0,0.0,55,0.00,,,0.00,WUHU216HW,2013-05-08 21:55:00,
2013-05-08 15:00:00,69.5,53.6,29.99,North,0,0.0,0.0,57,0.00,,,0.00,WUHU216HW,2013-05-08 22:00:00,
2013-05-08 15:06:00,69.5,52.6,29.98,North,0,0.0,0.0,55,0.00,,,0.00,WUHU216HW,2013-05-08 22:06:00,
2013-05-08 15:11:00,69.7,52.3,29.98,North,0,0.0,0.0,54,0.00,,,0.00,WUHU216HW,2013-05-08 22:11:00,
2013-05-08 15:16:00,70.0,53.6,29.98,North,0,0.0,0.0,56,0.00,,,0.00,WUHU216HW,2013-05-08 22:16:00,
2013-05-08 15:21:00,70.2,52.7,29.98,North,0,0.0,0.0,54,0.00,,,0.00,WUHU216HW,2013-05-08 22:21:00,
2013-05-08 15:26:00,70.6,52.6,29.98,North,0,0.0,0.0,53,0.00,,,0.00,WUHU216HW,2013-05-08 22:26:00,
2013-05-08 15:31:00,70.9,52.9,29.97,North,0,0.0,0.0,53,0.00,,,0.00,WUHU216HW,2013-05-08 22:31:00,
2013-05-08 15:36:00,71.6,53.6,29.97,North,0,0.0,0.0,53,0.00,,,0.00,WUHU216HW,2013-05-08 22:36:00,
2013-05-08 15:41:00,72.0,52.8,29.97,North,0,0.0,0.0,51,0.00,,,0.00,WUHU216HW,2013-05-08 22:41:00,
2013-05-08 15:46:00,72.0,52.4,29.97,North,0,0.0,0.0,50,0.00,,,0.00,WUHU216HW,2013-05-08 22:46:00,
2013-05-08 15:51:00,71.8,51.6,29.97,North,0,0.0,0.0,49,0.00,,,0.00,WUHU216HW,2013-05-08 22:51:00,
2013-05-08 15:56:00,71.6,52.0,29.97,North,0,0.0,0.0,50,0.00,,,0.00,WUHU216HW,2013-05-08 22:56:00,
2013-05-08 16:01:00,71.8,52.7,29.97,North,0,0.0,0.0,51,0.00,,,0.00,WUHU216HW,2013-05-08 23:01:00,
2013-05-08 16:06:00,71.8,51.6,29.97,North,0,0.0,0.0,49,0.00,,,0.00,WUHU216HW,2013-05-08 23:06:00,
2013-05-08 16:12:00,71.6,52.0,29.96,North,0,0.0,0.0,50,0.00,,,0.00,WUHU216HW,2013-05-08 23:12:00,
2013-05-08 16:17:00,72.0,52.8,29.97,North,0,0.0,0.0,51,0.00,,,0.00,WUHU216HW,2013-05-08 23:17:00,
2013-05-08 16:22:00,72.2,52.5,29.96,North,0,0.0,0.0,50,0.00,,,0.00,WUHU216HW,2013-05-08 23:22:00,
2013-05-08 16:27:00,72.4,52.7,29.96,North,0,0.0,0.0,50,0.00,,,0.00,WUHU216HW,2013-05-08 23:27:00,
2013-05-08 16:32:00,72.4,52.1,29.97,North,0,0.0,0.0,49,0.00,,,0.00,WUHU216HW,2013-05-08 23:32:00,
2013-05-08 16:37:00,72.4,52.7,29.96,North,0,0.0,0.0,50,0.00,,,0.00,WUHU216HW,2013-05-08 23:37:00,
2013-05-08 16:42:00,72.0,52.4,29.96,North,0,0.0,0.0,50,0.00,,,0.00,WUHU216HW,2013-05-08 23:42:00,
2013-05-08 16:47:00,72.0,52.4,29.97,North,0,0.0,0.0,50,0.00,,,0.00,WUHU216HW,2013-05-08 23:47:00,
2013-05-08 16:52:00,72.0,52.4,29.97,North,0,0.0,0.0,50,0.00,,,0.00,WUHU216HW,2013-05-08 23:52:00,
2013-05-08 16:57:00,71.8,51.6,29.97,North,0,0.0,0.0,49,0.00,,,0.00,WUHU216HW,2013-05-08 23:57:00,
2013-05-08 17:02:00,71.5,51.8,29.96,North,0,0.0,0.0,50,0.00,,,0.00,WUHU216HW,2013-05-09 00:02:00,
2013-05-08 17:07:00,71.3,52.2,29.97,North,0,0.0,0.0,51,0.00,,,0.00,WUHU216HW,2013-05-09 00:07:00,
2013-05-08 17:12:00,70.9,51.8,29.97,North,0,0.0,0.0,51,0.00,,,0.00,WUHU216HW,2013-05-09 00:12:00,
2013-05-08 17:17:00,70.9,51.8,29.97,North,0,0.0,0.0,51,0.00,,,0.00,WUHU216HW,2013-05-09 00:17:00,
2013-05-08 17:22:00,70.7,51.8,29.96,North,0,0.0,0.0,51,0.00,,,0.00,WUHU216HW,2013-05-09 00:22:00,
2013-05-08 17:27:00,70.7,51.8,29.97,North,0,0.0,0.0,51,0.00,,,0.00,WUHU216HW,2013-05-09 00:27:00,
2013-05-08 17:33:00,70.6,51.6,29.97,North,0,0.0,0.0,51,0.00,,,0.00,WUHU216HW,2013-05-09 00:33:00,
2013-05-08 17:38:00,70.2,51.2,29.97,North,0,0.0,0.0,51,0.00,,,0.00,WUHU216HW,2013-05-09 00:38:00,
2013-05-08 17:43:00,70.2,51.8,29.97,North,0,0.0,0.0,52,0.00,,,0.00,WUHU216HW,2013-05-09 00:43:00,
2013-05-08 17:48:00,69.8,51.0,29.97,North,0,0.0,0.0,51,0.00,,,0.00,WUHU216HW,2013-05-09 00:48:00,
2013-05-08 17:53:00,69.5,51.6,29.98,North,0,0.0,0.0,53,0.00,,,0.00,WUHU216HW,2013-05-09 00:53:00,
2013-05-08 17:58:00,69.1,50.8,29.97,North,0,0.0,0.0,52,0.00,,,0.00,WUHU216HW,2013-05-09 00:58:00,
2013-05-08 18:03:00,68.8,51.0,29.97,North,0,0.0,0.0,53,0.00,,,0.00,WUHU216HW,2013-05-09 01:03:00,
2013-05-08 18:08:00,68.4,51.0,29.97,North,0,0.0,0.0,54,0.00,,,0.00,WUHU216HW,2013-05-09 01:08:00,
2013-05-08 18:13:00,68.0,50.8,29.97,North,0,0.0,0.0,54,0.00,,,0.00,WUHU216HW,2013-05-09 01:13:00,
2013-05-08 18:18:00,67.7,50.9,29.97,North,0,0.0,0.0,55,0.00,,,0.00,WUHU216HW,2013-05-09 01:18:00,
2013-05-08 18:23:00,67.3,50.6,29.97,North,0,0.0,0.0,55,0.00,,,0.00,WUHU216HW,2013-05-09 01:23:00,
2013-05-08 18:28:00,66.8,50.6,29.97,North,0,0.0,0.0,56,0.00,,,0.00,WUHU216HW,2013-05-09 01:28:00,
2013-05-08 18:33:00,66.1,50.4,29.98,North,0,0.0,0.0,57,0.00,,,0.00,WUHU216HW,2013-05-09 01:33:00,
2013-05-08 18:38:00,65.5,50.3,29.97,North,0,0.0,0.0,58,0.00,,,0.00,WUHU216HW,2013-05-09 01:38:00,
2013-05-08 18:43:00,65.2,50.5,29.97,North,0,0.0,0.0,59,0.00,,,0.00,WUHU216HW,2013-05-09 01:43:00,
2013-05-08 18:49:00,64.6,50.4,29.97,North,0,0.0,0.0,60,0.00,,,0.00,WUHU216HW,2013-05-09 01:49:00,
2013-05-08 18:54:00,64.3,50.5,29.98,North,0,0.0,0.0,61,0.00,,,0.00,WUHU216HW,2013-05-09 01:54:00,
2013-05-08 18:59:00,63.7,50.1,29.98,North,0,0.0,0.0,61,0.00,,,0.00,WUHU216HW,2013-05-09 01:59:00,
2013-05-08 19:04:00,63.4,50.1,29.98,North,0,0.0,0.0,62,0.00,,,0.00,WUHU216HW,2013-05-09 02:04:00,
2013-05-08 19:09:00,62.8,50.4,29.98,North,0,0.0,0.0,64,0.00,,,0.00,WUHU216HW,2013-05-09 02:09:00,
2013-05-08 19:14:00,62.3,50.0,29.98,North,0,0.0,0.0,64,0.00,,,0.00,WUHU216HW,2013-05-09 02:14:00,
2013-05-08 19:19:00,61.7,49.9,29.98,North,0,0.0,0.0,65,0.00,,,0.00,WUHU216HW,2013-05-09 02:19:00,
2013-05-08 19:24:00,61.4,49.5,29.99,North,0,0.0,0.0,65,0.00,,,0.00,WUHU216HW,2013-05-09 02:24:00,
2013-05-08 19:29:00,61.0,49.2,29.99,North,0,0.0,0.0,65,0.00,,,0.00,WUHU216HW,2013-05-09 02:29:00,
2013-05-08 19:34:00,60.8,49.5,29.99,North,0,0.0,0.0,66,0.00,,,0.00,WUHU216HW,2013-05-09 02:34:00,
2013-05-08 19:39:00,60.3,49.3,29.99,North,0,0.0,0.0,67,0.00,,,0.00,WUHU216HW,2013-05-09 02:39:00,
2013-05-08 19:44:00,59.9,49.0,29.99,North,0,0.0,0.0,67,0.00,,,0.00,WUHU216HW,2013-05-09 02:44:00,
2013-05-08 19:49:00,59.6,49.1,29.99,North,0,0.0,0.0,68,0.00,,,0.00,WUHU216HW,2013-05-09 02:49:00,
2013-05-08 19:54:00,59.2,48.7,29.99,North,0,0.0,0.0,68,0.00,,,0.00,WUHU216HW,2013-05-09 02:54:00,
2013-05-08 19:59:00,59.0,48.9,29.99,North,0,0.0,0.0,69,0.00,,,0.00,WUHU216HW,2013-05-09 02:59:00,
2013-05-08 20:05:00,58.7,48.5,30.00,North,0,0.0,0.0,69,0.00,,,0.00,WUHU216HW,2013-05-09 03:05:00,
2013-05-08 20:10:00,58.5,48.3,30.00,North,0,0.0,0.0,69,0.00,,,0.00,WUHU216HW,2013-05-09 03:10:00,
2013-05-08 20:15:00,58.3,48.6,30.00,North,0,0.0,0.0,70,0.00,,,0.00,WUHU216HW,2013-05-09 03:15:00,
2013-05-08 20:20:00,58.1,48.4,30.00,North,0,0.0,0.0,70,0.00,,,0.00,WUHU216HW,2013-05-09 03:20:00,
2013-05-08 20:25:00,57.8,48.4,30.00,North,0,0.0,0.0,71,0.00,,,0.00,WUHU216HW,2013-05-09 03:25:00,
2013-05-08 20:30:00,57.2,48.2,30.01,North,0,0.0,0.0,72,0.00,,,0.00,WUHU216HW,2013-05-09 03:30:00,
2013-05-08 20:35:00,57.1,48.4,30.01,North,0,0.0,0.0,73,0.00,,,0.00,WUHU216HW,2013-05-09 03:35:00,
2013-05-08 20:40:00,56.9,48.2,30.01,North,0,0.0,0.0,73,0.00,,,0.00,WUHU216HW,2013-05-09 03:40:00,
2013-05-08 20:45:00,56.7,48.1,30.01,North,0,0.0,0.0,73,0.00,,,0.00,WUHU216HW,2013-05-09 03:45:00,
2013-05-08 20:50:00,56.5,48.2,30.01,North,0,0.0,0.0,74,0.00,,,0.00,WUHU216HW,2013-05-09 03:50:00,
2013-05-08 20:55:00,56.5,49.0,30.01,North,0,0.0,0.0,76,0.00,,,0.00,WUHU216HW,2013-05-09 03:55:00,
2013-05-08 21:00:00,56.3,48.5,30.02,North,0,0.0,0.0,75,0.00,,,0.00,WUHU216HW,2013-05-09 04:00:00,
2013-05-08 21:01:00,56.3,48.2,30.02,North,0,0.0,0.0,74,0.00,,,0.00,WUHU216HW,2013-05-09 04:01:00,
2013-05-08 21:02:00,56.2,48.3,30.02,North,0,0.0,0.0,75,0.00,,,0.00,WUHU216HW,2013-05-09 04:02:00,
2013-05-08 21:07:00,56.0,48.5,30.03,North,0,0.0,0.0,76,0.00,,,0.00,WUHU216HW,2013-05-09 04:07:00,
2013-05-08 21:12:00,55.8,48.6,30.03,North,0,0.0,0.0,77,0.00,,,0.00,WUHU216HW,2013-05-09 04:12:00,
2013-05-08 21:17:00,55.8,48.6,30.03,North,0,0.0,0.0,77,0.00,,,0.00,WUHU216HW,2013-05-09 04:17:00,
2013-05-08 21:22:00,55.6,48.8,30.03,North,0,0.0,0.0,78,0.00,,,0.00,WUHU216HW,2013-05-09 04:22:00,
2013-05-08 21:27:00,55.8,48.6,30.03,North,0,0.0,0.0,77,0.00,,,0.00,WUHU216HW,2013-05-09 04:27:00,
2013-05-08 21:32:00,55.8,48.6,30.03,North,0,0.0,0.0,77,0.00,,,0.00,WUHU216HW,2013-05-09 04:32:00,
2013-05-08 21:37:00,55.8,48.6,30.04,North,0,0.0,0.0,77,0.00,,,0.00,WUHU216HW,2013-05-09 04:37:00,